Miscellaneous Local Product
Issued by NWS North Platte, NE

Current Version | Previous Version | Text Only | Print | Product List | Glossary On
Versions: 1 2 3 4 5 6 7 8 9 10 11 12 13 14 15 16 17 18 19 20 21 22 23 24 25 26 27 28 29 30 31 32 33 34 35 36 37 38 39 40 41 42 43 44 45 46 47 48 49 50
000
AXUS43 KLBF 240310
MISLBF


WESTERN AND NORTH CENTRAL NEBRASKA HOURLY WEATHER ROUNDUP
NATIONAL WEATHER SERVICE NORTH PLATTE NE
1000 PM CDT WED JUL 23 2014

***STATIONS NOT REPORTING VARIABLES SUCH AS SKY/WEATHER OR
PRESSURE ARE PROVIDED BY THE NEBRASKA DEPARTMENT OF
ROADS...RAWS...AND APRS NETWORKS...AND ARE NOT UNDER
NATIONAL WEATHER SERVICE QUALITY CONTROL***

...OBSERVATIONS IN AND NEAR THE EASTERN PANHANDLE OF NEBRASKA...

CITY           SKY/WX    TMP DP  RH WIND       PRES   REMARKS
PINE RIDGE     MOCLDY    77  62  59 SE8       30.07S
CHADRON        PTCLDY    83  67  58 SE22      30.02F
ALLIANCE       MOCLDY    78  64  61 SE20      30.12S
SIDNEY         PTCLDY    83  61  47 S15       30.17R
WHITECLAY        N/A     80  61  51 SE14        N/A
RUSHVILLE        N/A     82  61  48 S28         N/A
GORDON           N/A     81  61  50 SE20        N/A
CRESCENT LAKE    N/A     76  64  67 SE10G21     N/A
LISCO            N/A     82  66  57 E15         N/A
BIG SPRINGS      N/A     81  66  60 SE8         N/A
$$

...OBSERVATIONS IN NORTH CENTRAL NEBRASKA...

CITY           SKY/WX    TMP DP  RH WIND       PRES   REMARKS
VALENTINE      CLEAR     76  57  51 SE12      30.13S
THEDFORD       CLEAR     74  61  62 SE13      30.17S
AINSWORTH      CLEAR     71  56  58 SE10      30.16S
O`NEILL        CLEAR     72  58  61 SE6       30.18R
ORD            CLEAR     70  61  73 SE5       30.17R
BROKEN BOW     CLEAR     70  62  76 SE7       30.18S
BROWNLEE         N/A     75  55  49 SE12        N/A
SPRINGVIEW       N/A     72  61  67 E5          N/A
DUNNING          N/A     68  62  81 SE7         N/A
ROSE             N/A     73  64  74 E9          N/A
NEWPORT          N/A     66  63  87 E8          N/A
SARGENT          N/A     68  60  76 CALM        N/A
COMSTOCK         N/A     74  67  79 S6          N/A
CHAMBERS         N/A     68  57  68 E3          N/A
EWING            N/A     67  61  80 CALM        N/A
$$

...OBSERVATIONS IN SOUTHWEST NEBRASKA AND FAR NORTHEAST COLORADO...

CITY           SKY/WX    TMP DP  RH WIND       PRES   REMARKS
WRAY             N/A     83  59  45 SE10      30.15S
HOLYOKE        FAIR      79  64  61 SE10      30.16R
IMPERIAL       CLEAR     72  65  78 SE15      30.16R
OGALLALA       MOCLDY    72  65  80 E9        30.16R
NORTH PLATTE   CLEAR     70  62  76 E10       30.16F
MCCOOK         CLEAR     72  65  78 E9        30.16S
LEXINGTON      CLEAR     73  63  69 SE9       30.18S
PAXTON           N/A     75  67  77 E6          N/A
SUTHERLAND       N/A     75  71  87 SE9         N/A
BRADY            N/A     69  61  77 NE3         N/A
GOTHENBURG       N/A     72  60  65 E3          N/A
CALLAWAY         N/A     72  65  77 SE7         N/A
$$

...NORTH PLATTE AREA...

CITY           SKY/WX    TMP DP  RH WIND       PRES   REMARKS
AIRPORT        CLEAR     70  62  76 E10       30.16F
$$

...SOME WEATHER OBSERVATIONS FROM AROUND THE REGION...

CITY           SKY/WX    TMP DP  RH WIND       PRES   REMARKS
DENVER         CLOUDY    77  48  35 SW22      30.23F
LARAMIE        CLOUDY    71  41  33 SE21G28   30.34F
CHEYENNE       CLOUDY    75  47  36 SW18G26   30.28S
SCOTTSBLUFF    MOCLDY    82  67  60 E9        30.09F
RAPID CITY     MOCLDY    74  66  76 S6        30.05F
PIERRE         PTCLDY    74  57  55 SE12      30.07S
WINNER         FAIR      75  55  49 SE13      30.12R
SIOUX FALLS    PTCLDY    70  58  65 E6        30.17S
OMAHA          PTCLDY    75  62  64 E6        30.15R
GRAND ISLAND   CLEAR     70  62  76 E5        30.18R
KANSAS CITY    PTCLDY    75  64  68 NE7       30.14R
WICHITA        PTCLDY    79  64  60 E6        30.12R
HAYS           CLEAR     75  61  60 E10       30.15R
LIBERAL        CLEAR     84  66  54 E12       30.17R
GOODLAND       MOCLDY    77  63  61 SE10      30.19R
$$



USA.gov is the U.S. government's official web portal to all federal, state and local government web resources and services.